WZZ60 LATI-LHBP

Flight info

Callsign WZZ60
Flight time 1h 15m
Altitude 36000
Route RINAV DCT ALELU DCT VAL DCT PARAK DCT KEZAL
Aircraft A321/M-SDE1E2E3FGIJ1J4RWXY/LB1

Departure

Time 2026-05-04 06:36
Airport Tirana International Airport Mother Teresa (LATI)

Arrival

Time 2026-05-04 07:51
Airport Budapest Liszt Ferenc International Airport (LHBP)
Time Latitude Longitude Altitude Speed Heading
2026-05-04 06:13 41.42106 19.71492 132 ft 0 kts 264°
2026-05-04 06:29 41.42108 19.71513 132 ft 4 kts 264°
2026-05-04 06:29 41.42110 19.71540 132 ft 4 kts 236°
2026-05-04 06:29 41.42128 19.71551 132 ft 3 kts 174°
2026-05-04 06:30 41.42150 19.71548 132 ft 1 kts 174°
2026-05-04 06:33 41.41867 19.71601 132 ft 12 kts 136°
2026-05-04 06:34 41.41857 19.71672 132 ft 12 kts 86°
2026-05-04 06:34 41.41864 19.71791 131 ft 14 kts 86°
2026-05-04 06:34 41.41880 19.71925 128 ft 16 kts 86°
2026-05-04 06:34 41.41841 19.72007 125 ft 10 kts 169°
2026-05-04 06:35 41.41805 19.72011 125 ft 0 kts 175°
2026-05-04 06:36 41.38028 19.72430 1672 ft 188 kts 174°
2026-05-04 06:37 41.36662 19.72605 1947 ft 207 kts 173°
2026-05-04 06:37 41.35143 19.72828 2159 ft 233 kts 173°
2026-05-04 06:37 41.33457 19.73075 2535 ft 253 kts 174°
2026-05-04 06:37 41.31674 19.73329 3191 ft 261 kts 174°
2026-05-04 06:38 41.29843 19.73584 3897 ft 267 kts 174°
2026-05-04 06:38 41.27975 19.73839 4660 ft 272 kts 174°
2026-05-04 06:40 41.27545 19.65566 9423 ft 267 kts 11°
2026-05-04 06:40 41.29381 19.66013 10166 ft 269 kts 10°
2026-05-04 06:40 41.31279 19.66418 10519 ft 287 kts
2026-05-04 06:40 41.33335 19.66755 10665 ft 310 kts
2026-05-04 06:41 41.35530 19.67014 11052 ft 321 kts
2026-05-04 06:41 41.37771 19.67207 11712 ft 324 kts
2026-05-04 06:41 41.40034 19.67362 12404 ft 326 kts
2026-05-04 06:41 41.42307 19.67501 13104 ft 328 kts
2026-05-04 06:42 41.44596 19.67636 13805 ft 330 kts
2026-05-04 06:42 41.46899 19.67773 14456 ft 332 kts
2026-05-04 06:42 41.49215 19.67918 15042 ft 334 kts
2026-05-04 06:44 41.65898 19.69232 19088 ft 352 kts 12°
2026-05-04 06:44 41.68296 19.69942 19595 ft 354 kts 12°
2026-05-04 06:44 41.70681 19.70648 20090 ft 357 kts 12°
2026-05-04 06:45 41.73117 19.71368 20578 ft 360 kts 12°
2026-05-04 06:45 41.75576 19.72094 21105 ft 363 kts 12°
2026-05-04 06:45 41.78049 19.72827 21630 ft 365 kts 12°
2026-05-04 06:45 41.80534 19.73558 22126 ft 368 kts 12°
2026-05-04 06:46 41.83042 19.74295 22623 ft 370 kts 11°
2026-05-04 06:46 41.85571 19.75038 23070 ft 373 kts 11°
2026-05-04 06:46 41.88113 19.75789 23530 ft 376 kts 11°
2026-05-04 06:46 41.90672 19.76547 23959 ft 378 kts 11°
2026-05-04 06:48 42.09115 19.80171 26709 ft 387 kts
2026-05-04 06:48 42.11804 19.80506 27057 ft 389 kts
2026-05-04 06:49 42.14504 19.80841 27384 ft 391 kts
2026-05-04 06:50 42.33805 19.83268 29673 ft 406 kts
2026-05-04 06:51 42.36629 19.83623 30002 ft 408 kts
2026-05-04 06:51 42.39463 19.83979 30271 ft 410 kts
2026-05-04 06:51 42.42312 19.84339 30563 ft 412 kts
2026-05-04 06:51 42.45173 19.84703 30848 ft 413 kts
2026-05-04 06:52 42.48032 19.85057 31263 ft 411 kts
2026-05-04 06:52 42.50884 19.85274 31658 ft 410 kts
2026-05-04 06:52 42.53724 19.85345 32053 ft 408 kts 359°
2026-05-04 06:52 42.56558 19.85332 32461 ft 407 kts 358°
2026-05-04 06:53 42.59382 19.85294 32807 ft 405 kts 358°
2026-05-04 06:53 42.62203 19.85265 33173 ft 404 kts 359°
2026-05-04 06:53 42.65009 19.85264 33551 ft 403 kts 359°
2026-05-04 06:53 42.67807 19.85286 33939 ft 402 kts 359°
2026-05-04 06:54 42.70572 19.85322 34233 ft 402 kts 359°
2026-05-04 06:54 42.73369 19.85369 34536 ft 402 kts 359°
2026-05-04 06:54 42.76165 19.85415 34822 ft 402 kts 359°
2026-05-04 06:54 42.78960 19.85456 35076 ft 402 kts 359°
2026-05-04 06:55 42.81756 19.85491 35338 ft 402 kts 359°
2026-05-04 06:55 42.84552 19.85526 35580 ft 402 kts 359°
2026-05-04 06:55 42.87349 19.85561 35812 ft 403 kts 359°
2026-05-04 06:55 42.90158 19.85599 36037 ft 403 kts 359°
2026-05-04 06:56 42.92965 19.85640 36194 ft 404 kts 359°
2026-05-04 06:57 43.12606 19.85904 36233 ft 403 kts 359°
2026-05-04 06:58 43.18183 19.85976 36236 ft 403 kts 359°
2026-05-04 06:58 43.23791 19.86042 36233 ft 403 kts 359°
2026-05-04 06:59 43.29407 19.86111 36232 ft 404 kts 359°
2026-05-04 06:59 43.35039 19.86190 36214 ft 405 kts 359°
2026-05-04 07:01 43.57639 19.86489 36241 ft 407 kts 360°
2026-05-04 07:02 43.63302 19.86567 36246 ft 407 kts 360°
2026-05-04 07:02 43.68964 19.86639 36244 ft 407 kts 360°
2026-05-04 07:03 43.74629 19.86715 36241 ft 407 kts 360°
2026-05-04 07:03 43.80298 19.86796 36239 ft 407 kts 360°
2026-05-04 07:04 43.85966 19.86871 36243 ft 407 kts
2026-05-04 07:04 43.91635 19.86948 36217 ft 408 kts 360°
2026-05-04 07:05 43.97280 19.87033 36211 ft 409 kts 360°
2026-05-04 07:05 44.02972 19.87113 36215 ft 409 kts 360°
2026-05-04 07:06 44.11523 19.87222 36216 ft 410 kts 360°
2026-05-04 07:07 44.17229 19.87296 36221 ft 410 kts 360°
2026-05-04 07:09 44.40047 19.88245 36217 ft 410 kts
2026-05-04 07:09 44.45733 19.89033 36222 ft 410 kts
2026-05-04 07:10 44.51421 19.89756 36195 ft 411 kts
2026-05-04 07:12 44.74280 19.92388 36211 ft 413 kts
2026-05-04 07:12 44.80012 19.93063 36212 ft 413 kts
2026-05-04 07:13 44.85744 19.93734 36216 ft 413 kts
2026-05-04 07:13 44.91441 19.94400 36215 ft 413 kts
2026-05-04 07:14 45.05768 19.96097 36209 ft 413 kts
2026-05-04 07:15 45.11504 19.96771 36209 ft 413 kts
2026-05-04 07:15 45.17234 19.97444 36185 ft 414 kts
2026-05-04 07:16 45.22986 19.98122 36194 ft 415 kts
2026-05-04 07:16 45.28752 19.98809 36194 ft 416 kts
2026-05-04 07:17 45.34529 19.99504 36196 ft 417 kts
2026-05-04 07:17 45.40267 20.00189 36201 ft 417 kts
2026-05-04 07:18 45.46048 20.00874 36202 ft 417 kts
2026-05-04 07:18 45.51840 20.01571 36203 ft 418 kts
2026-05-04 07:19 45.57634 20.02269 36200 ft 418 kts
2026-05-04 07:19 45.63424 20.02969 36208 ft 418 kts
2026-05-04 07:20 45.69224 20.03667 36205 ft 418 kts
2026-05-04 07:20 45.75025 20.04368 36205 ft 419 kts
2026-05-04 07:22 45.98245 20.07191 36197 ft 420 kts
2026-05-04 07:23 46.04078 20.07903 36204 ft 420 kts
2026-05-04 07:23 46.09905 20.08623 36203 ft 421 kts
2026-05-04 07:24 46.15743 20.09337 36202 ft 421 kts
2026-05-04 07:24 46.21577 20.10093 36205 ft 421 kts
2026-05-04 07:26 46.44897 20.13319 35685 ft 420 kts
2026-05-04 07:27 46.47810 20.13715 35439 ft 420 kts
2026-05-04 07:27 46.50685 20.14109 35196 ft 420 kts
2026-05-04 07:27 46.53592 20.14507 34937 ft 418 kts
2026-05-04 07:27 46.56475 20.14904 34457 ft 416 kts
2026-05-04 07:28 46.59348 20.15305 33952 ft 413 kts
2026-05-04 07:28 46.62197 20.15702 33466 ft 409 kts
2026-05-04 07:28 46.65021 20.16093 33020 ft 405 kts
2026-05-04 07:28 46.67816 20.16479 32569 ft 401 kts
2026-05-04 07:29 46.70582 20.16863 32113 ft 397 kts
2026-05-04 07:29 46.73318 20.17244 31664 ft 394 kts
2026-05-04 07:29 46.76033 20.17624 31225 ft 390 kts
2026-05-04 07:29 46.78718 20.18000 30790 ft 386 kts
2026-05-04 07:30 46.81387 20.18371 30337 ft 383 kts
2026-05-04 07:30 46.84030 20.18740 29863 ft 380 kts
2026-05-04 07:30 46.86642 20.19106 29440 ft 375 kts
2026-05-04 07:30 46.89221 20.19464 29024 ft 370 kts
2026-05-04 07:31 46.90904 20.19699 28749 ft 368 kts
2026-05-04 07:31 46.94258 20.20173 28222 ft 363 kts
2026-05-04 07:33 47.10567 20.22425 25729 ft 342 kts
2026-05-04 07:33 47.13669 20.21923 25259 ft 339 kts 347°
2026-05-04 07:33 47.15184 20.21189 25002 ft 339 kts 339°
2026-05-04 07:33 47.17231 20.19582 24621 ft 339 kts 328°
2026-05-04 07:34 47.19039 20.17366 24251 ft 340 kts 316°
2026-05-04 07:34 47.20656 20.14823 23860 ft 339 kts 315°
2026-05-04 07:34 47.22258 20.12297 23422 ft 337 kts 315°
2026-05-04 07:34 47.23858 20.09774 23018 ft 336 kts 315°
2026-05-04 07:35 47.25450 20.07261 22606 ft 335 kts 315°
2026-05-04 07:35 47.27032 20.04763 22217 ft 333 kts 315°
2026-05-04 07:35 47.28608 20.02280 21812 ft 331 kts 315°
2026-05-04 07:35 47.30179 19.99801 21410 ft 330 kts 315°
2026-05-04 07:36 47.31740 19.97330 20997 ft 329 kts 315°
2026-05-04 07:36 47.33294 19.94863 20577 ft 328 kts 315°
2026-05-04 07:38 47.37710 19.73896 17468 ft 334 kts 254°
2026-05-04 07:38 47.37068 19.70602 17019 ft 334 kts 254°
2026-05-04 07:38 47.36439 19.67364 16575 ft 333 kts 254°
2026-05-04 07:38 47.35984 19.64028 16136 ft 332 kts 267°
2026-05-04 07:39 47.36103 19.60606 15695 ft 330 kts 282°
2026-05-04 07:39 47.36770 19.57431 15266 ft 328 kts 296°
2026-05-04 07:39 47.37959 19.54553 14780 ft 331 kts 310°
2026-05-04 07:39 47.39505 19.52035 14313 ft 331 kts 314°
2026-05-04 07:40 47.41072 19.49538 13815 ft 333 kts 314°
2026-05-04 07:40 47.42646 19.47020 13282 ft 334 kts 313°
2026-05-04 07:40 47.44219 19.44492 12750 ft 335 kts 313°
2026-05-04 07:40 47.45794 19.41956 12257 ft 335 kts 313°
2026-05-04 07:41 47.47370 19.39415 11752 ft 335 kts 313°
2026-05-04 07:41 47.48947 19.36869 11253 ft 335 kts 313°
2026-05-04 07:41 47.50521 19.34327 10772 ft 335 kts 313°
2026-05-04 07:41 47.52093 19.31783 10291 ft 335 kts 313°
2026-05-04 07:42 47.53666 19.29235 9798 ft 335 kts 313°
2026-05-04 07:42 47.55238 19.26689 9257 ft 334 kts 312°
2026-05-04 07:42 47.56800 19.24157 8761 ft 333 kts 312°
2026-05-04 07:42 47.58362 19.21626 8245 ft 332 kts 311°
2026-05-04 07:43 47.59916 19.19104 7746 ft 331 kts 311°
2026-05-04 07:43 47.61446 19.16620 7261 ft 328 kts 310°
2026-05-04 07:43 47.62941 19.14191 6754 ft 310 kts 310°
2026-05-04 07:43 47.64356 19.11891 6272 ft 294 kts 310°
2026-05-04 07:44 47.65578 19.09587 5749 ft 275 kts 292°
2026-05-04 07:44 47.66005 19.06928 5264 ft 265 kts 264°
2026-05-04 07:44 47.65576 19.04360 4750 ft 250 kts 237°
2026-05-04 07:44 47.64509 19.02447 4245 ft 236 kts 219°
2026-05-04 07:45 47.63290 19.00823 3997 ft 232 kts 220°
2026-05-04 07:45 47.62121 18.99269 4004 ft 217 kts 219°
2026-05-04 07:45 47.60821 18.98355 4006 ft 201 kts 188°
2026-05-04 07:45 47.59525 18.98651 4002 ft 181 kts 158°
2026-05-04 07:46 47.58582 18.99770 3986 ft 168 kts 136°
2026-05-04 07:46 47.57828 19.01007 3990 ft 159 kts 137°
2026-05-04 07:46 47.57087 19.02213 3934 ft 157 kts 138°
2026-05-04 07:46 47.56363 19.03394 3769 ft 156 kts 138°
2026-05-04 07:47 47.55631 19.04585 3583 ft 157 kts 139°
2026-05-04 07:47 47.54915 19.05755 3399 ft 149 kts 140°
2026-05-04 07:47 47.54231 19.06870 3197 ft 145 kts 140°
2026-05-04 07:49 47.49588 19.14419 1853 ft 141 kts 138°
2026-05-04 07:49 47.48926 19.15494 1676 ft 142 kts 138°
2026-05-04 07:49 47.48262 19.16572 1474 ft 142 kts 137°
2026-05-04 07:50 47.47599 19.17648 1292 ft 142 kts 135°
2026-05-04 07:50 47.46932 19.18730 1095 ft 143 kts 135°
2026-05-04 07:50 47.46254 19.19828 905 ft 147 kts 134°
2026-05-04 07:50 47.45570 19.20945 690 ft 149 kts 134°
2026-05-04 07:51 47.44885 19.22065 504 ft 145 kts 136°
2026-05-04 07:51 47.44225 19.23139 455 ft 128 kts 138°
2026-05-04 07:51 47.43802 19.23799 455 ft 50 kts 130°
2026-05-04 07:51 47.43691 19.24132 454 ft 25 kts 102°
2026-05-04 07:52 47.43656 19.24355 456 ft 19 kts 107°
2026-05-04 07:52 47.43598 19.24529 455 ft 19 kts 121°
2026-05-04 07:52 47.43512 19.24680 457 ft 20 kts 134°
2026-05-04 07:52 47.43423 19.24819 457 ft 21 kts 132°
2026-05-04 07:53 47.43332 19.24974 457 ft 18 kts 128°
2026-05-04 07:54 47.43613 19.25751 457 ft 16 kts 42°
2026-05-04 07:55 47.43694 19.25859 457 ft 13 kts 42°
2026-05-04 07:55 47.43731 19.25951 457 ft 10 kts 92°
2026-05-04 07:55 47.43692 19.26042 457 ft 11 kts 126°
2026-05-04 07:55 47.43676 19.26160 457 ft 12 kts 88°
2026-05-04 07:56 47.43677 19.26291 457 ft 14 kts 92°
2026-05-04 07:56 47.43648 19.26378 458 ft 6 kts 133°
2026-05-04 07:56 47.43637 19.26390 458 ft 1 kts 161°
2026-05-04 07:56 47.43625 19.26387 458 ft 2 kts 193°
2026-05-04 07:57 47.43607 19.26370 457 ft 2 kts 220°
2026-05-04 07:57 47.43597 19.26357 457 ft 2 kts 221°
2026-05-04 07:57 47.43592 19.26350 457 ft 2 kts 222°
2026-05-04 07:57 47.43591 19.26349 457 ft 0 kts 222°